This is the latest recevied weather packets stored in our database for station/object DG4DAZ-6. If no packets are shown the sender has not sent any weather packets the latest 10 day(s).
| Time | Temp. | Humidity | Pressure | Rain* | Wind** | Luminosity | Snow |
|---|---|---|---|---|---|---|---|
| 1777907483 | 16.67° C | 74% | 1011.8 hPa | 0 mm | - | 130 W/m² | - |
| 1777906883 | 17.22° C | 74% | 1011.6 hPa | 0 mm | - | 159 W/m² | - |
| 1777906284 | 17.22° C | 73% | 1011.6 hPa | 0 mm | - | 171 W/m² | - |
| 1777905684 | 17.22° C | 72% | 1011.6 hPa | 0 mm | - | 158 W/m² | - |
| 1777905083 | 17.22° C | 69% | 1011.6 hPa | 0 mm | - | 98 W/m² | - |
| 1777904484 | 17.22° C | 69% | 1011.6 hPa | 0 mm | - | 79 W/m² | - |
| 1777903884 | 17.78° C | 67% | 1011.6 hPa | 0 mm | - | 98 W/m² | - |
| 1777903283 | 17.78° C | 65% | 1011.5 hPa | 0 mm | - | 122 W/m² | - |
| 1777902682 | 18.33° C | 62% | 1011.4 hPa | 0 mm | - | 145 W/m² | - |
| 1777902084 | 18.33° C | 61% | 1011.4 hPa | 0 mm | - | 182 W/m² | - |
| 1777901483 | 18.33° C | 59% | 1011.4 hPa | 0 mm | - | 192 W/m² | - |
| 1777900882 | 18.89° C | 59% | 1011.5 hPa | 0 mm | - | 212 W/m² | - |
| 1777900284 | 18.89° C | 62% | 1011.6 hPa | 0 mm | - | 309 W/m² | - |
| 1777899683 | 18.89° C | 65% | 1011.6 hPa | 0 mm | - | 378 W/m² | - |
| 1777899082 | 18.33° C | 67% | 1011.7 hPa | 0 mm | - | 297 W/m² | - |
| 1777898482 | 18.33° C | 65% | 1011.7 hPa | 0 mm | - | 221 W/m² | - |
| 1777897884 | 18.89° C | 62% | 1011.8 hPa | 0 mm | - | 215 W/m² | - |
| 1777897283 | 18.89° C | 62% | 1011.8 hPa | 0 mm | - | 249 W/m² | - |
| 1777896683 | 19.44° C | 61% | 1011.7 hPa | 0 mm | - | 294 W/m² | - |
| 1777896082 | 18.89° C | 63% | 1011.7 hPa | 0 mm | - | 357 W/m² | - |
| 1777895484 | 19.44° C | 62% | 1011.7 hPa | 0 mm | - | 331 W/m² | - |
| 1777894884 | 19.44° C | 62% | 1011.9 hPa | 0 mm | - | 437 W/m² | - |
| 1777894283 | 19.44° C | 61% | 1011.8 hPa | 0 mm | - | 394 W/m² | - |
| 1777893682 | 19.44° C | 60% | 1011.8 hPa | 0 mm | - | 332 W/m² | - |
| 1777893084 | 19.44° C | 60% | 1011.9 hPa | 0 mm | - | 520 W/m² | - |
* Rain latest hour (hover to see other rain measurements)
** Current wind speed in m/s (hover to see current wind gust speed)